TITAN 3C TRANSTAGE R/B, 2222

Orbit data source: Space-Track

TITAN 3C TRANSTAGE R/B, 2222 is space debris in GEO originally from a launch on Thu, 16 Jun 1966 UTC launched from the Air Force Eastern Test Range (AFETR). Debris objects in space refer to the collection of defunct objects orbiting the Earth. Examples of debris include non-operational satellites, rocket bodies, and fragments generated from explosions, collisions, or faulty payload assembly.

Not visible in the next 10 days
Identifier
2222, 1966-053J
Orbit
GEO
Country
Flag of USUS
Related business
Manufacturer
Martin Marietta
Mission
Spacecraft
Bus & Motor
TRANSTAGE, Unknown motor
Mass
2,050 kg wet, 2,050 kg dry
Launch date (UTC)
1966-06-16 (60 years ago)
Launch vehicle
Unknown
Launch site
Air Force Eastern Test Range (AFETR)
Object type
Payload
Rocket body
Debris
Shape & HBR
Unknown
Radar Cross Section
Large (>1 m²)

Expand to show TLE details & history
Last TLE update: 17 hours ago

TLE from 17 hours ago
0 TITAN 3C TRANSTAGE R/B
1 02222U 66053J   26119.20233463 -.00000174  00000-0  00000-0 0  9993
2 02222   8.3172  48.3814 0164409 169.5668 185.9652  1.06721942129857
Epoch: 2026-04-29T04:51Z
TLE epoch observation values (Epoch: 2026-04-29T04:51:21.712Z)
Latitude
-0.66034°
Longitude
113.76466°
Altitude
34,734.428 km
Speed
3.088 km/s
True Right ascension
02h 55m 05s
True Declination
0° 39' 35"
Sunlit
Object was in daylight at epoch
Visualization orbit readout
Latitude
Unknown
Longitude
Unknown
Altitude
Unknown
Speed
Unknown
Apparent Right ascension
Unknown
Apparent Declination
Unknown
Sunlit
N/A
Visualization observer readout
Local Sidereal Time
05:43:53
Azimuth
Unknown
Elevation
Unknown
Doppler factor
Unknown
Orbital elements
Apogee altitude
34,736.181 km
Perigee altitude
33,406.135 km
Semi-major axis
40,449.295 km
Eccentricity
0.01644
Inclination
8.3172°
RAAN
48.3814°
Arg. of periapsis
169.5668°
True anomaly
185.77333°
Mean anomaly
185.9652°
Eccentric anomaly
185.86888°
Mean motion
0.26679 °/min
Orbital period
1,349.35 mins
BSTAR
0
Loading maneuver chart data...
Computing Atmospheric mass density...
Loading historical data...
Loading historical data...
Loading historical data...
Loading historical data...
Loading historical data...
Loading historical data...
Loading historical data...

Documentation

Showing up to 5 results
|